| time (UTC) | temp C | wind direction | speed KPH | gust KPH | rain 1hr cm | rain 24hr cm | rain mn cm | humidity % | barometer mb |
| 20260503050053 | 2 | 192 | 0.0 | 0.0 | 0.00 | 0.00 | 0.00 | 88 | 1026.0 |
| 20260503045418 | 2 | 191 | 0.0 | 0.0 | 0.00 | 0.00 | 0.00 | 87 | 1026.0 |
| 20260503044845 | 2 | 165 | 0.0 | 0.0 | 0.00 | 0.00 | 0.00 | 86 | 1026.0 |
| 20260503044242 | 2 | 162 | 0.0 | 0.0 | 0.00 | 0.00 | 0.00 | 86 | 1025.7 |
| 20260503043639 | 2 | 160 | 0.0 | 0.0 | 0.00 | 0.00 | 0.00 | 85 | 1025.7 |
| 20260503043016 | 2 | 171 | 0.0 | 0.0 | 0.00 | 0.00 | 0.00 | 85 | 1025.7 |
| 20260503042443 | 2 | 164 | 0.0 | 0.0 | 0.00 | 0.00 | 0.00 | 84 | 1025.7 |
| 20260503041823 | 2 | 164 | 0.0 | 0.0 | 0.00 | 0.00 | 0.00 | 84 | 1025.7 |
| 20260503040623 | 3 | 160 | 0.0 | 0.0 | 0.00 | 0.00 | 0.00 | 83 | 1025.7 |
| 20260503040047 | 3 | 158 | 0.0 | 0.0 | 0.00 | 0.00 | 0.00 | 82 | 1025.7 |
| 20260503035451 | 3 | 160 | 0.0 | 0.0 | 0.00 | 0.00 | 0.00 | 82 | 1025.7 |
| 20260503034851 | 3 | 162 | 0.0 | 0.0 | 0.00 | 0.00 | 0.00 | 82 | 1025.7 |
| 20260503034216 | 4 | 176 | 0.0 | 0.0 | 0.00 | 0.00 | 0.00 | 82 | 1025.7 |
| 20260503033638 | 4 | 311 | 3.2 | 3.2 | 0.00 | 0.00 | 0.00 | 82 | 1025.7 |
| 20260503032419 | 4 | 317 | 3.2 | 3.2 | 0.00 | 0.00 | 0.00 | 81 | 1025.3 |
| 20260503031839 | 5 | 189 | 3.2 | 4.8 | 0.00 | 0.00 | 0.00 | 80 | 1025.3 |
| 20260503031244 | 5 | 318 | 4.8 | 4.8 | 0.00 | 0.00 | 0.00 | 80 | 1025.3 |
| 20260503030642 | 5 | 140 | 0.0 | 4.8 | 0.00 | 0.00 | 0.00 | 80 | 1025.3 |
| 20260503030024 | 5 | 217 | 0.0 | 6.4 | 0.00 | 0.00 | 0.00 | 80 | 1025.3 |
| 20260503025424 | 5 | 309 | 4.8 | 4.8 | 0.00 | 0.00 | 0.00 | 81 | 1025.3 |
| 20260503024829 | 5 | 308 | 4.8 | 4.8 | 0.00 | 0.00 | 0.00 | 80 | 1025.3 |
| 20260503024233 | 5 | 170 | 0.0 | 4.8 | 0.00 | 0.00 | 0.00 | 80 | 1025.0 |
| 20260503023618 | 5 | 151 | 0.0 | 4.8 | 0.00 | 0.00 | 0.00 | 79 | 1025.0 |
| 20260503023036 | 5 | 131 | 1.6 | 4.8 | 0.00 | 0.00 | 0.00 | 80 | 1025.0 |
| 20260503022451 | 5 | 153 | 0.0 | 4.8 | 0.00 | 0.00 | 0.00 | 79 | 1025.0 |
| 20260503021851 | 6 | 307 | 4.8 | 4.8 | 0.00 | 0.00 | 0.00 | 78 | 1025.0 |
| 20260503021241 | 6 | 273 | 3.2 | 4.8 | 0.00 | 0.00 | 0.00 | 78 | 1025.0 |
| 20260503020644 | 6 | 297 | 0.0 | 3.2 | 0.00 | 0.00 | 0.00 | 77 | 1024.7 |
| 20260503020048 | 6 | 226 | 0.0 | 3.2 | 0.00 | 0.00 | 0.00 | 77 | 1024.7 |
| 20260503014817 | 6 | 304 | 3.2 | 4.8 | 0.00 | 0.00 | 0.00 | 77 | 1024.3 |
| 20260503014252 | 6 | 208 | 1.6 | 3.2 | 0.00 | 0.00 | 0.00 | 77 | 1024.3 |
| 20260503013626 | 6 | 289 | 0.0 | 4.8 | 0.00 | 0.00 | 0.00 | 76 | 1024.3 |
| 20260503013014 | 6 | 284 | 3.2 | 4.8 | 0.00 | 0.00 | 0.00 | 76 | 1024.3 |
| 20260503011811 | 7 | 292 | 1.6 | 3.2 | 0.00 | 0.00 | 0.00 | 74 | 1024.0 |
| 20260503011231 | 7 | 160 | 0.0 | 3.2 | 0.00 | 0.00 | 0.00 | 73 | 1024.0 |
| 20260503010623 | 7 | 175 | 1.6 | 4.8 | 0.00 | 0.00 | 0.00 | 74 | 1023.7 |
| 20260503010028 | 7 | 211 | 0.0 | 3.2 | 0.00 | 0.00 | 0.00 | 73 | 1023.7 |
| 20260503005413 | 7 | 169 | 1.6 | 3.2 | 0.00 | 0.00 | 0.00 | 73 | 1023.7 |
| 20260503004843 | 7 | 173 | 0.0 | 0.0 | 0.00 | 0.00 | 0.00 | 72 | 1023.7 |
| 20260503004211 | 8 | 239 | 0.0 | 1.6 | 0.00 | 0.00 | 0.00 | 74 | 1023.7 |
| 20260503003641 | 8 | 210 | 0.0 | 3.2 | 0.00 | 0.00 | 0.00 | 75 | 1023.7 |
| 20260503003018 | 8 | 239 | 0.0 | 3.2 | 0.00 | 0.00 | 0.00 | 74 | 1023.3 |
| 20260503001815 | 8 | 179 | 0.0 | 3.2 | 0.00 | 0.00 | 0.00 | 72 | 1023.3 |
| 20260503001232 | 8 | 154 | 0.0 | 3.2 | 0.00 | 0.00 | 0.00 | 72 | 1023.3 |
| 20260503000048 | 8 | 145 | 0.0 | 4.8 | 0.00 | 0.00 | 0.00 | 70 | 1023.0 |
| 20260502235410 | 9 | 194 | 3.2 | 3.2 | 0.00 | 0.00 | 0.00 | 71 | 1023.0 |
| 20260502234841 | 9 | 209 | 0.0 | 4.8 | 0.00 | 0.00 | 0.00 | 69 | 1023.0 |
| 20260502234245 | 10 | 291 | 3.2 | 4.8 | 0.00 | 0.00 | 0.00 | 68 | 1023.0 |
| 20260502233641 | 10 | 159 | 1.6 | 1.6 | 0.00 | 0.00 | 0.00 | 64 | 1023.0 |
| 20260502232429 | 11 | 189 | 0.0 | 0.0 | 0.00 | 0.00 | 0.00 | 52 | 1023.0 |
| 20260502231840 | 11 | 210 | 6.4 | 6.4 | 0.00 | 0.00 | 0.00 | 47 | 1023.0 |
| 20260502231212 | 12 | 303 | 3.2 | 6.4 | 0.00 | 0.00 | 0.00 | 48 | 1023.0 |
| 20260502230630 | 12 | 162 | 0.0 | 3.2 | 0.00 | 0.00 | 0.00 | 48 | 1023.0 |
| 20260502230040 | 12 | 163 | 1.6 | 4.8 | 0.00 | 0.00 | 0.00 | 50 | 1023.0 |
| 20260502225434 | 11 | 43 | 3.2 | 3.2 | 0.00 | 0.00 | 0.00 | 48 | 1023.0 |
| 20260502224832 | 11 | 162 | 3.2 | 9.7 | 0.00 | 0.00 | 0.00 | 49 | 1023.0 |
| 20260502224227 | 12 | 148 | 3.2 | 6.4 | 0.00 | 0.00 | 0.00 | 49 | 1023.0 |
| 20260502223035 | 12 | 161 | 4.8 | 9.7 | 0.00 | 0.00 | 0.00 | 47 | 1023.0 |
| 20260502222421 | 12 | 156 | 0.0 | 0.0 | 0.00 | 0.00 | 0.00 | 49 | 1022.6 |
| 20260502221839 | 12 | 166 | 0.0 | 0.0 | 0.00 | 0.00 | 0.00 | 48 | 1022.6 |
| 20260502221254 | 12 | 158 | 0.0 | 4.8 | 0.00 | 0.00 | 0.00 | 50 | 1022.6 |
| 20260502220621 | 12 | 152 | 3.2 | 4.8 | 0.00 | 0.00 | 0.00 | 49 | 1022.6 |
| 20260502220030 | 12 | 312 | 4.8 | 6.4 | 0.00 | 0.00 | 0.00 | 46 | 1022.6 |
| 20260502215411 | 12 | 195 | 1.6 | 3.2 | 0.00 | 0.00 | 0.00 | 49 | 1022.6 |
| 20260502214823 | 12 | 167 | 3.2 | 12.9 | 0.00 | 0.00 | 0.00 | 48 | 1022.6 |
| 20260502213651 | 12 | 190 | 4.8 | 6.4 | 0.00 | 0.00 | 0.00 | 47 | 1022.6 |
| 20260502213041 | 12 | 109 | 3.2 | 6.4 | 0.00 | 0.00 | 0.00 | 48 | 1022.3 |
| 20260502212448 | 12 | 159 | 3.2 | 3.2 | 0.00 | 0.00 | 0.00 | 54 | 1022.3 |
| 20260502211814 | 12 | 145 | 0.0 | 4.8 | 0.00 | 0.00 | 0.00 | 49 | 1022.3 |
| 20260502211238 | 12 | 150 | 4.8 | 6.4 | 0.00 | 0.00 | 0.00 | 55 | 1022.3 |
| 20260502210627 | 12 | 158 | 4.8 | 6.4 | 0.00 | 0.00 | 0.00 | 51 | 1022.3 |
| 20260502210034 | 12 | 253 | 4.8 | 6.4 | 0.00 | 0.00 | 0.00 | 46 | 1022.3 |
| 20260502205414 | 12 | 159 | 0.0 | 0.0 | 0.00 | 0.00 | 0.00 | 49 | 1022.3 |
| 20260502204235 | 12 | 239 | 1.6 | 11.3 | 0.00 | 0.00 | 0.00 | 45 | 1022.3 |
| 20260502203612 | 13 | 238 | 9.7 | 9.7 | 0.00 | 0.00 | 0.00 | 46 | 1022.6 |
| 20260502203052 | 13 | 215 | 4.8 | 8.0 | 0.00 | 0.00 | 0.00 | 46 | 1022.6 |
| 20260502202443 | 13 | 202 | 4.8 | 4.8 | 0.00 | 0.00 | 0.00 | 45 | 1022.6 |
| 20260502201845 | 13 | 175 | 3.2 | 6.4 | 0.00 | 0.00 | 0.00 | 45 | 1022.6 |
| 20260502201211 | 13 | 346 | 1.6 | 11.3 | 0.00 | 0.00 | 0.00 | 44 | 1022.6 |
| 20260502200650 | 13 | 148 | 0.0 | 3.2 | 0.00 | 0.00 | 0.00 | 49 | 1022.6 |
| 20260502200039 | 13 | 185 | 6.4 | 9.7 | 0.00 | 0.00 | 0.00 | 45 | 1023.0 |
| 20260502195414 | 13 | 180 | 0.0 | 0.0 | 0.00 | 0.00 | 0.00 | 46 | 1022.6 |
| 20260502194838 | 12 | 89 | 3.2 | 8.0 | 0.00 | 0.00 | 0.00 | 49 | 1023.0 |
| 20260502194248 | 13 | 177 | 4.8 | 8.0 | 0.00 | 0.00 | 0.00 | 46 | 1023.0 |
| 20260502193634 | 13 | 173 | 4.8 | 8.0 | 0.00 | 0.00 | 0.00 | 46 | 1023.0 |
| 20260502193038 | 13 | 87 | 3.2 | 6.4 | 0.00 | 0.00 | 0.00 | 44 | 1022.6 |
| 20260502192426 | 13 | 281 | 6.4 | 6.4 | 0.00 | 0.00 | 0.00 | 43 | 1023.0 |
| 20260502191852 | 14 | 183 | 3.2 | 8.0 | 0.00 | 0.00 | 0.00 | 45 | 1023.0 |
| 20260502190615 | 12 | 171 | 3.2 | 3.2 | 0.00 | 0.00 | 0.00 | 48 | 1023.0 |
| 20260502190018 | 13 | 184 | 6.4 | 8.0 | 0.00 | 0.00 | 0.00 | 45 | 1023.0 |
| 20260502185437 | 13 | 179 | 4.8 | 4.8 | 0.00 | 0.00 | 0.00 | 45 | 1023.3 |
| 20260502184255 | 13 | 119 | 3.2 | 8.0 | 0.00 | 0.00 | 0.00 | 47 | 1023.3 |
| 20260502183654 | 13 | 284 | 3.2 | 4.8 | 0.00 | 0.00 | 0.00 | 46 | 1023.3 |
| 20260502183016 | 13 | 187 | 1.6 | 6.4 | 0.00 | 0.00 | 0.00 | 46 | 1023.3 |
| 20260502182440 | 13 | 56 | 4.8 | 6.4 | 0.00 | 0.00 | 0.00 | 44 | 1023.3 |
| 20260502181833 | 14 | 291 | 3.2 | 11.3 | 0.00 | 0.00 | 0.00 | 42 | 1023.3 |
| 20260502181254 | 13 | 29 | 3.2 | 8.0 | 0.00 | 0.00 | 0.00 | 45 | 1023.3 |
| 20260502180621 | 13 | 139 | 6.4 | 8.0 | 0.00 | 0.00 | 0.00 | 43 | 1023.3 |
| 20260502164244 | 12 | 163 | 6.4 | 11.3 | 0.00 | 0.00 | 0.00 | 48 | 1024.0 |
| 20260502163631 | 12 | 149 | 4.8 | 9.7 | 0.00 | 0.00 | 0.00 | 48 | 1024.0 |
| 20260502163054 | 12 | 16 | 4.8 | 17.7 | 0.00 | 0.00 | 0.00 | 46 | 1024.0 |
| 20260502162442 | 12 | 135 | 4.8 | 6.4 | 0.00 | 0.00 | 0.00 | 46 | 1024.0 |
| 20260502161816 | 13 | 140 | 4.8 | 9.7 | 0.00 | 0.00 | 0.00 | 52 | 1024.0 |
| 20260502161221 | 12 | 159 | 8.0 | 12.9 | 0.00 | 0.00 | 0.00 | 47 | 1024.0 |
| 20260502160623 | 14 | 161 | 6.4 | 9.7 | 0.00 | 0.00 | 0.00 | 44 | 1024.0 |
| 20260502151833 | 12 | 146 | 4.8 | 11.3 | 0.00 | 0.00 | 0.00 | 48 | 1024.3 |
| 20260502151241 | 13 | 160 | 0.0 | 9.7 | 0.00 | 0.00 | 0.00 | 53 | 1024.3 |
| 20260502150650 | 12 | 179 | 3.2 | 9.7 | 0.00 | 0.00 | 0.00 | 59 | 1024.3 |
| 20260502130631 | 7 | 193 | 0.0 | 0.0 | 0.00 | 0.00 | 0.00 | 84 | 1024.3 |
| 20260502123636 | 6 | 152 | 0.0 | 0.0 | 0.00 | 0.00 | 0.00 | 91 | 1024.3 |
| 20260502122440 | 5 | 153 | 0.0 | 0.0 | 0.00 | 0.00 | 0.00 | 96 | 1024.3 |
| 20260502121222 | 5 | 156 | 0.0 | 0.0 | 0.00 | 0.00 | 0.00 | 97 | 1024.3 |
| 20260502120644 | 4 | 153 | 0.0 | 0.0 | 0.00 | 0.00 | 0.00 | 97 | 1024.3 |
| 20260502115451 | 3 | 172 | 0.0 | 0.0 | 0.00 | 0.00 | 0.00 | 98 | 1024.3 |
| 20260502114813 | 3 | 160 | 0.0 | 0.0 | 0.00 | 0.00 | 0.00 | 97 | 1024.3 |
| 20260502114232 | 2 | 165 | 0.0 | 0.0 | 0.00 | 0.00 | 0.00 | 98 | 1024.3 |
| 20260502113611 | 2 | 166 | 0.0 | 0.0 | 0.00 | 0.00 | 0.00 | 99 | 1024.3 |
| 20260502113039 | 1 | 164 | 0.0 | 0.0 | 0.00 | 0.00 | 0.00 | 98 | 1024.3 |
| 20260502112437 | 1 | 161 | 0.0 | 0.0 | 0.00 | 0.00 | 0.00 | 98 | 1024.3 |
| 20260502111828 | 1 | 164 | 0.0 | 0.0 | 0.00 | 0.00 | 0.00 | 98 | 1024.0 |
| 20260502111226 | 1 | 169 | 0.0 | 0.0 | 0.00 | 0.00 | 0.00 | 98 | 1024.0 |
| 20260502110017 | 1 | 187 | 0.0 | 0.0 | 0.00 | 0.00 | 0.00 | 98 | 1024.0 |
| 20260502105418 | 1 | 169 | 0.0 | 0.0 | 0.00 | 0.00 | 0.00 | 98 | 1024.0 |
| 20260502104829 | 1 | 189 | 0.0 | 0.0 | 0.00 | 0.00 | 0.00 | 98 | 1024.0 |
| 20260502104217 | 1 | 201 | 0.0 | 0.0 | 0.00 | 0.00 | 0.00 | 98 | 1024.0 |
| 20260502103635 | 1 | 192 | 0.0 | 0.0 | 0.00 | 0.00 | 0.00 | 98 | 1024.0 |
| 20260502103043 | 1 | 175 | 0.0 | 0.0 | 0.00 | 0.00 | 0.00 | 98 | 1024.0 |
| 20260502102419 | 1 | 188 | 0.0 | 0.0 | 0.00 | 0.00 | 0.00 | 98 | 1024.0 |
| 20260502101847 | 1 | 194 | 0.0 | 0.0 | 0.00 | 0.00 | 0.00 | 97 | 1024.0 |
| 20260502100631 | 1 | 210 | 0.0 | 0.0 | 0.00 | 0.00 | 0.00 | 97 | 1024.0 |
| 20260502091252 | 1 | 162 | 0.0 | 0.0 | 0.00 | 0.00 | 0.00 | 97 | 1024.0 |
| 20260502090624 | 1 | 208 | 0.0 | 0.0 | 0.00 | 0.00 | 0.00 | 97 | 1024.0 |
| 20260502071224 | 2 | 167 | 0.0 | 0.0 | 0.00 | 0.00 | 0.00 | 95 | 1023.7 |
| 20260502070652 | 2 | 166 | 0.0 | 0.0 | 0.00 | 0.00 | 0.00 | 95 | 1023.7 |
| 20260502070035 | 2 | 163 | 0.0 | 0.0 | 0.00 | 0.00 | 0.00 | 95 | 1023.7 |
| 20260502063651 | 2 | 167 | 0.0 | 0.0 | 0.00 | 0.00 | 0.00 | 95 | 1024.0 |
| 20260502063042 | 2 | 176 | 0.0 | 0.0 | 0.00 | 0.00 | 0.00 | 95 | 1024.0 |
| 20260502061814 | 2 | 168 | 0.0 | 0.0 | 0.00 | 0.00 | 0.00 | 94 | 1024.3 |
| 20260502061249 | 2 | 173 | 0.0 | 0.0 | 0.00 | 0.00 | 0.00 | 94 | 1024.0 |
| 20260502060622 | 2 | 162 | 0.0 | 0.0 | 0.00 | 0.00 | 0.00 | 94 | 1024.3 |
| 20260502060047 | 2 | 163 | 0.0 | 0.0 | 0.00 | 0.00 | 0.00 | 94 | 1024.0 |
| 20260502055448 | 2 | 173 | 0.0 | 0.0 | 0.00 | 0.00 | 0.00 | 94 | 1024.3 |
| 20260502054820 | 3 | 167 | 0.0 | 0.0 | 0.00 | 0.00 | 0.00 | 93 | 1024.3 |
| 20260502054251 | 3 | 167 | 0.0 | 0.0 | 0.00 | 0.00 | 0.00 | 93 | 1024.3 |
| 20260502053021 | 3 | 164 | 0.0 | 0.0 | 0.00 | 0.00 | 0.00 | 93 | 1024.3 |
| 20260502052415 | 3 | 173 | 0.0 | 0.0 | 0.00 | 0.00 | 0.00 | 93 | 1024.3 |
| 20260502051826 | 3 | 170 | 0.0 | 0.0 | 0.00 | 0.00 | 0.00 | 92 | 1024.3 |
| 20260502051220 | 3 | 170 | 0.0 | 0.0 | 0.00 | 0.00 | 0.00 | 92 | 1024.3 |
| 20260502050628 | 3 | 173 | 0.0 | 0.0 | 0.00 | 0.00 | 0.00 | 92 | 1024.3 |